Regional Weather Roundup
Issued by NWS

Home | Current Version | Previous Version | Graphics & Text | Print | Product List | Glossary Off
Versions: 1 2 3 4 5 6 7 8 9 10 11 12 13 14 15 16 17 18 19 20 21 22 23 24 25 26 27 28 29 30 31 32 33 34 35 36 37 38 39 40 41 42 43 44 45 46 47 48 49 50

000
ASUS43 KIND 260909
RWRIN

WEATHER ROUNDUP FOR INDIANA
NATIONAL WEATHER SERVICE INDIANAPOLIS IN
500 AM EDT THU MAY 26 2016

NOTE: "FAIR" INDICATES FEW OR NO CLOUDS BELOW 12,000 FEET WITH NO
SIGNIFICANT WEATHER AND/OR OBSTRUCTIONS TO VISIBILITY.

* - STATION DOES NOT REPORT WEATHER SUCH AS PRECIPITATION OR FOG.

+ - STATION NOT QUALITY CONTROLLED BY THE NATIONAL WEATHER SERVICE.
    USE DATA WITH CAUTION...ESPECIALLY DEWPOINT AND RELATIVE
    HUMIDITY OBSERVATIONS.

INZ001>003-010>013-019-020-261000-
NORTHWEST INDIANA

CITY           SKY/WX    TMP DP  RH WIND       PRES   REMARKS
GARY /AIRPORT/ CLEAR     70  70 100 S6        29.92F
KNOX *+        CLEAR     66  59  77 S8        29.96S
LA PORTE +     CLEAR     68  68  99 S5        29.96S
MICHIGAN CITY+ CLEAR     66  66 100 S5        29.94F
MONTICELLO +   CLOUDY    69  63  81 S6        29.97S
RENSSELAER +   CLEAR     68  64  88 S6        29.96S
VALPARAISO     CLEAR     66  63  90 S5        29.95F

$$

LMZ046-743>745-261000-
SOUTHERN LAKE MICHIGAN

STATION/POSITION TIME  TEMP    WIND        PRES    WAVE
                       AIR SEA DIR/SP/G            HT
                 (UTC) (F)     (DEG/KT/KT) (MB)    (FT)
BURNS HARBOR     0800   68     180/  7/ 15 1014.2S
MICHIGAN CITY    0800   68     150/ 10/ 13   N/A
5NW MICH CITY    0900   63 58  180/  6/  8   N/A     1

$$

INZ004-005-014>016-021>024-261000-
NORTH CENTRAL INDIANA

CITY           SKY/WX    TMP DP  RH WIND       PRES   REMARKS
GOSHEN         CLOUDY    68  62  81 S3        29.97S
LOGANSPORT +   MOCLDY    68  63  83 S9        29.99S
PERU/GRISSOM   CLOUDY    69  65  86 S10       29.98F
ROCHESTER +    MOCLDY    70  64  83 S6        29.98S
SOUTH BEND     CLOUDY    68  63  84 S5        29.97S
WARSAW +       CLOUDY    70  63  78 S3        29.99S

$$

INZ006>009-017-018-025>027-261000-
NORTHEAST INDIANA

CITY           SKY/WX    TMP DP  RH WIND       PRES   REMARKS
ANGOLA *+      PTCLDY    64  64 100 CALM      29.99R
AUBURN +       CLOUDY    70  61  73 CALM      30.00S
FORT WAYNE     CLOUDY    69  62  78 SW7       30.00S
HUNTINGTON +   CLOUDY   N/A N/A N/A SW7       29.99F

$$

INZ028-029-035-036-043>045-051>053-261000-
WEST CENTRAL INDIANA

CITY           SKY/WX    TMP DP  RH WIND       PRES   REMARKS
CRAWFORDSVL +  CLOUDY    66  66  97 S9        30.01S
GREENCASTLE +  CLOUDY    64  64 100 S3        30.03F
LAFAYETTE      CLOUDY    69  64  84 S6        29.97F
TERRE HAUTE    CLOUDY    67  64  90 SE5       30.01S

$$

INZ030>032-037>040-046>048-054>057-064-065-261000-
CENTRAL INDIANA

CITY           SKY/WX    TMP DP  RH WIND       PRES   REMARKS
CP ATTERBURY + CLOUDY    64  61  88 S3        30.06R
FISHERS *+     CLOUDY    66  64  94 S5        30.04R
FRANKFORT +      N/A     68  58  69 SW3       30.03R
GREENWOOD *+   CLOUDY    68  63  83 S6        30.05S
INDIANAPOLIS   CLOUDY    69  63  81 SW8       30.02R
-EAGLE CREEK   CLOUDY    69  63  81 S6        30.02S
KOKOMO *+      CLOUDY    70  61  73 S10       30.00F
MARION +       CLOUDY    68  62  81 SW9       30.02S
SHELBYVILLE    CLOUDY    69  62  78 S8        30.04R
ZIONSVILLE +   CLOUDY    67  63  86 S7        30.03S

$$

INZ033-034-041-042-049-050-058-059-261000-
EAST CENTRAL INDIANA

CITY           SKY/WX    TMP DP  RH WIND       PRES   REMARKS
MUNCIE         MOCLDY    69  61  75 SW7       30.03S

$$

INZ060-061-067>069-081>083-085>088-261000-
SOUTHWEST INDIANA

CITY           SKY/WX    TMP DP  RH WIND       PRES   REMARKS
EVANSVILLE     MOCLDY    65  62  90 S3        30.04S
HUNTINGBURG *+ MOCLDY    64  61  88 S5        30.05S
WASHINGTON +   CLOUDY    66  66 100 SE5       30.03S

$$

INZ062-063-066-070>080-084-089>092-261000-
SOUTH CENTRAL AND SOUTHEAST INDIANA

CITY           SKY/WX    TMP DP  RH WIND       PRES   REMARKS
BEDFORD +      MOCLDY    64  64 100 S3        30.05S
BLOOMINGTON    CLOUDY    66  62  87 S6        30.04S
MADISON *+     CLOUDY    66  61  82 S3        30.08S
NORTH VERNON + CLOUDY   N/A N/A N/A CALM      30.07S
SEYMOUR +      CLOUDY    68  63  83 CALM      30.06R

$$





USA.gov is the U.S. government's official web portal to all federal, state and local government web resources and services.